Location: Unspecified
(37.6100°N, 2.7800°W)
Time: 03:32:39
(UTC+00:00)

Envisat - Visible Passes

Search period start: 14 December 2018 00:00
Search period end: 24 December 2018 00:00
Orbit: 764 x 766 km, 98.2° (Epoch: 13 December)

Date Brightness Start Highest point End Pass type
(mag) Time Alt. Az. Time Alt. Az. Time Alt. Az.
14 Dec 6.5 06:26:01 10° E 06:26:43 10° E 06:27:24 10° E visible
14 Dec 4.6 17:38:09 10° E 17:40:20 13° ENE 17:42:31 10° NE visible
14 Dec 3.1 19:13:38 10° S 19:18:41 73° WSW 19:23:47 10° NNW visible
15 Dec 3.1 18:37:09 10° SE 18:42:01 49° ENE 18:46:55 10° N visible
15 Dec 5.5 20:18:00 10° SW 20:21:17 17° W 20:24:35 10° NW visible
16 Dec 5.8 06:48:52 10° NE 06:52:32 20° E 06:56:10 10° SE visible
16 Dec 4.0 18:01:42 10° ESE 18:05:34 22° ENE 18:09:25 10° NNE visible
16 Dec 4.2 19:39:34 10° SSW 19:44:18 39° W 19:49:04 10° NNW visible
17 Dec 2.8 19:02:25 10° SSE 19:07:29 88° E 19:12:36 10° NNW visible
18 Dec 3.4 18:26:14 10° SE 18:30:53 38° ENE 18:35:34 10° N visible
18 Dec 5.2 20:06:07 10° SW 20:09:59 22° W 20:13:54 10° NW visible
19 Dec 6.0 06:38:18 10° NE 06:41:14 15° E 06:44:09 10° SE visible
19 Dec 4.3 17:51:10 10° ESE 17:54:29 18° ENE 17:57:48 10° NNE visible
19 Dec 3.7 19:28:08 10° S 19:33:04 51° W 19:38:00 10° NNW visible
20 Dec 2.8 18:51:18 10° SSE 18:56:19 69° ENE 19:01:23 10° N visible
20 Dec 5.9 20:33:57 10° WSW 20:35:48 12° W 20:37:37 10° WNW visible
21 Dec 3.7 18:15:23 10° SE 18:19:46 30° ENE 18:24:11 10° N visible
21 Dec 4.8 19:54:24 10° SSW 19:58:43 28° W 20:03:04 10° NW visible
22 Dec 6.2 06:28:11 10° ENE 06:29:55 12° E 06:31:38 10° ESE visible
22 Dec 4.5 17:40:51 10° E 17:43:25 14° ENE 17:46:00 10° NNE visible
22 Dec 3.3 19:16:49 10° S 19:21:50 66° WSW 19:26:54 10° NNW visible
23 Dec 3.0 18:40:14 10° SSE 18:45:09 54° ENE 18:50:06 10° N visible
23 Dec 5.7 20:21:30 10° SW 20:24:28 16° W 20:27:27 10° NW visible
